AOJ74J LDSP-LOWW

Flight info

Callsign AOJ74J
Flight time 0h 54m
Altitude 38000
Route SIRMI DCT RUDIK DCT OBUTI OBUTI2W
Aircraft C750/M-SBDE3FGHRWXY/S

Departure

Time 2026-05-06 17:21
Airport Split Saint Jerome Airport (LDSP)

Arrival

Time 2026-05-06 18:15
Airport Vienna International Airport (LOWW)
Time Latitude Longitude Altitude Speed Heading
2026-05-06 17:12 43.53589 16.29569 60 ft 0 kts 115°
2026-05-06 17:17 43.53589 16.29579 62 ft 2 kts 82°
2026-05-06 17:17 43.53600 16.29597 63 ft 1 kts 42°
2026-05-06 17:17 43.53621 16.29591 65 ft 4 kts 319°
2026-05-06 17:17 43.53651 16.29572 62 ft 5 kts 358°
2026-05-06 17:18 43.53681 16.29574 68 ft 3 kts 346°
2026-05-06 17:18 43.53700 16.29539 71 ft 7 kts 280°
2026-05-06 17:18 43.53690 16.29449 70 ft 11 kts 250°
2026-05-06 17:18 43.53673 16.29404 77 ft 7 kts 240°
2026-05-06 17:19 43.53615 16.29294 77 ft 17 kts 233°
2026-05-06 17:19 43.53544 16.29162 71 ft 17 kts 233°
2026-05-06 17:19 43.53474 16.29036 77 ft 19 kts 232°
2026-05-06 17:19 43.53378 16.28863 76 ft 23 kts 230°
2026-05-06 17:20 43.53287 16.28698 76 ft 21 kts 232°
2026-05-06 17:20 43.53228 16.28607 75 ft 6 kts 260°
2026-05-06 17:20 43.53238 16.28608 70 ft 4 kts 64°
2026-05-06 17:20 43.53244 16.28621 75 ft 0 kts 52°
2026-05-06 17:21 43.53362 16.28835 77 ft 83 kts 51°
2026-05-06 17:21 43.53881 16.29781 124 ft 151 kts 55°
2026-05-06 17:21 43.54616 16.31058 458 ft 182 kts 57°
2026-05-06 17:21 43.54934 16.32683 1229 ft 177 kts 96°
2026-05-06 17:22 43.54672 16.34256 2339 ft 163 kts 115°
2026-05-06 17:22 43.54064 16.35575 3101 ft 169 kts 133°
2026-05-06 17:22 43.53100 16.36518 3869 ft 171 kts 154°
2026-05-06 17:22 43.52010 16.37209 4703 ft 175 kts 156°
2026-05-06 17:23 43.50907 16.38005 5443 ft 179 kts 154°
2026-05-06 17:23 43.49772 16.38878 5652 ft 194 kts 153°
2026-05-06 17:23 43.48608 16.39773 5507 ft 190 kts 154°
2026-05-06 17:23 43.47474 16.40594 5459 ft 181 kts 159°
2026-05-06 17:24 43.46250 16.40793 5470 ft 179 kts 187°
2026-05-06 17:24 43.45058 16.40092 5839 ft 192 kts 216°
2026-05-06 17:24 43.44202 16.38763 6836 ft 185 kts 230°
2026-05-06 17:24 43.43402 16.37345 7549 ft 191 kts 230°
2026-05-06 17:25 43.42847 16.35668 7515 ft 201 kts 258°
2026-05-06 17:25 43.43063 16.33718 7466 ft 226 kts 288°
2026-05-06 17:25 43.44213 16.32075 7964 ft 249 kts 327°
2026-05-06 17:25 43.45832 16.31382 9132 ft 243 kts 344°
2026-05-06 17:26 43.47523 16.30981 9880 ft 252 kts 347°
2026-05-06 17:26 43.49240 16.30597 10811 ft 249 kts 346°
2026-05-06 17:26 43.50997 16.30424 11073 ft 271 kts 357°
2026-05-06 17:26 43.52987 16.30444 11320 ft 300 kts 357°
2026-05-06 17:27 43.55168 16.30469 11562 ft 326 kts 357°
2026-05-06 17:27 43.57492 16.30460 12199 ft 334 kts 358°
2026-05-06 17:27 43.59826 16.30447 12975 ft 340 kts 357°
2026-05-06 17:27 43.62214 16.30442 13720 ft 346 kts 356°
2026-05-06 17:28 43.64633 16.30445 14441 ft 350 kts 357°
2026-05-06 17:28 43.67072 16.30442 15217 ft 351 kts 356°
2026-05-06 17:28 43.69534 16.30434 15880 ft 357 kts 356°
2026-05-06 17:28 43.72036 16.30429 16591 ft 361 kts 356°
2026-05-06 17:29 43.74558 16.30426 17387 ft 364 kts 356°
2026-05-06 17:29 43.77107 16.30423 18137 ft 369 kts 356°
2026-05-06 17:29 43.79692 16.30417 18834 ft 373 kts 356°
2026-05-06 17:29 43.82295 16.30414 19610 ft 375 kts 356°
2026-05-06 17:30 43.84912 16.30411 20382 ft 377 kts 356°
2026-05-06 17:30 43.87549 16.30406 21156 ft 380 kts 356°
2026-05-06 17:30 43.90205 16.30401 21928 ft 383 kts 355°
2026-05-06 17:30 43.92882 16.30396 22686 ft 386 kts 355°
2026-05-06 17:31 43.95584 16.30392 23464 ft 390 kts 355°
2026-05-06 17:31 43.98272 16.30388 24086 ft 393 kts 355°
2026-05-06 17:31 44.01025 16.30383 24656 ft 398 kts 355°
2026-05-06 17:31 44.03802 16.30378 25264 ft 401 kts 354°
2026-05-06 17:32 44.06605 16.30373 25848 ft 405 kts 354°
2026-05-06 17:32 44.09434 16.30369 26427 ft 409 kts 354°
2026-05-06 17:32 44.12293 16.30364 27014 ft 413 kts 354°
2026-05-06 17:32 44.15180 16.30359 27596 ft 417 kts 354°
2026-05-06 17:33 44.18096 16.30358 28187 ft 422 kts 354°
2026-05-06 17:33 44.21048 16.30368 28796 ft 426 kts 354°
2026-05-06 17:33 44.24024 16.30377 29364 ft 430 kts 353°
2026-05-06 17:33 44.27035 16.30379 29908 ft 435 kts 353°
2026-05-06 17:34 44.30066 16.30384 30438 ft 437 kts 354°
2026-05-06 17:34 44.33124 16.30393 30896 ft 441 kts 353°
2026-05-06 17:34 44.36208 16.30396 31349 ft 445 kts 352°
2026-05-06 17:34 44.39315 16.30396 31772 ft 449 kts 353°
2026-05-06 17:35 44.42449 16.30404 32285 ft 451 kts 353°
2026-05-06 17:35 44.45600 16.30413 32735 ft 455 kts 353°
2026-05-06 17:35 44.48780 16.30415 33160 ft 460 kts 353°
2026-05-06 17:36 44.55229 16.30423 34044 ft 467 kts 353°
2026-05-06 17:36 44.58489 16.30431 34477 ft 469 kts 353°
2026-05-06 17:36 44.61744 16.30439 35136 ft 466 kts 354°
2026-05-06 17:36 44.64969 16.30446 35782 ft 462 kts 354°
2026-05-06 17:37 44.68183 16.30448 36342 ft 462 kts 354°
2026-05-06 17:37 44.71391 16.30451 36900 ft 461 kts 354°
2026-05-06 17:37 44.74594 16.30458 37488 ft 460 kts 354°
2026-05-06 17:37 44.77790 16.30465 37926 ft 462 kts 355°
2026-05-06 17:38 44.81047 16.30464 37909 ft 474 kts 355°
2026-05-06 17:38 44.84381 16.30467 37902 ft 484 kts 355°
2026-05-06 17:38 44.91261 16.30485 37916 ft 504 kts 355°
2026-05-06 17:39 44.98346 16.30492 37914 ft 521 kts 356°
2026-05-06 17:39 45.05643 16.30401 37903 ft 525 kts 354°
2026-05-06 17:40 45.12969 16.30178 37896 ft 527 kts 355°
2026-05-06 17:40 45.20313 16.30070 37893 ft 528 kts 355°
2026-05-06 17:41 45.27651 16.29867 37891 ft 528 kts 355°
2026-05-06 17:41 45.34995 16.29733 37888 ft 528 kts 355°
2026-05-06 17:42 45.42333 16.29551 37888 ft 527 kts 355°
2026-05-06 17:42 45.49659 16.29401 37883 ft 527 kts 355°
2026-05-06 17:43 45.56986 16.29230 37883 ft 527 kts 355°
2026-05-06 17:43 45.63076 16.29098 37886 ft 527 kts 355°
2026-05-06 17:44 45.70402 16.28932 37884 ft 527 kts 355°
2026-05-06 17:44 45.77736 16.28768 37884 ft 528 kts 355°
2026-05-06 17:45 45.85155 16.28603 37885 ft 526 kts 355°
2026-05-06 17:45 45.92382 16.28437 37884 ft 526 kts 355°
2026-05-06 17:46 45.99707 16.28273 37881 ft 526 kts 355°
2026-05-06 17:46 46.07051 16.28105 37872 ft 528 kts 355°
2026-05-06 17:47 46.14396 16.27941 37864 ft 528 kts 355°
2026-05-06 17:47 46.21744 16.27771 37886 ft 528 kts 355°
2026-05-06 17:48 46.29124 16.27603 37869 ft 531 kts 355°
2026-05-06 17:48 46.36514 16.27433 37884 ft 532 kts 355°
2026-05-06 17:49 46.43908 16.27264 37894 ft 531 kts 355°
2026-05-06 17:49 46.51255 16.27094 37884 ft 532 kts 355°
2026-05-06 17:50 46.54962 16.27011 37871 ft 513 kts 355°
2026-05-06 17:50 46.58420 16.26944 36979 ft 499 kts 355°
2026-05-06 17:50 46.61839 16.26860 36198 ft 485 kts 355°
2026-05-06 17:50 46.65174 16.26775 35392 ft 474 kts 355°
2026-05-06 17:51 46.68439 16.26580 34593 ft 466 kts 349°
2026-05-06 17:51 46.71602 16.25743 33824 ft 460 kts 341°
2026-05-06 17:51 46.74681 16.24451 33010 ft 463 kts 338°
2026-05-06 17:51 46.77788 16.23025 31973 ft 473 kts 338°
2026-05-06 17:52 46.80992 16.21831 30779 ft 476 kts 343°
2026-05-06 17:52 46.84196 16.20966 29638 ft 456 kts 346°
2026-05-06 17:52 46.87308 16.20117 29011 ft 460 kts 343°
2026-05-06 17:52 46.90363 16.19057 27791 ft 447 kts 341°
2026-05-06 17:53 46.93428 16.17934 25978 ft 461 kts 342°
2026-05-06 17:53 46.96519 16.16940 25654 ft 447 kts 344°
2026-05-06 17:53 46.99597 16.15993 25315 ft 449 kts 344°
2026-05-06 17:53 47.02596 16.15010 24695 ft 431 kts 343°
2026-05-06 17:54 47.05463 16.14032 24008 ft 413 kts 343°
2026-05-06 17:54 47.08239 16.13107 23466 ft 406 kts 343°
2026-05-06 17:54 47.10979 16.12216 22836 ft 401 kts 343°
2026-05-06 17:54 47.13681 16.11332 22401 ft 394 kts 343°
2026-05-06 17:55 47.16343 16.10444 22090 ft 393 kts 343°
2026-05-06 17:55 47.19029 16.09545 21330 ft 395 kts 343°
2026-05-06 17:55 47.21682 16.08676 20804 ft 387 kts 343°
2026-05-06 17:55 47.24277 16.07823 20653 ft 383 kts 343°
2026-05-06 17:56 47.26897 16.06942 19940 ft 389 kts 343°
2026-05-06 17:56 47.29512 16.06073 19333 ft 378 kts 343°
2026-05-06 17:56 47.32056 16.05237 18781 ft 370 kts 344°
2026-05-06 17:56 47.34552 16.04406 18337 ft 365 kts 343°
2026-05-06 17:57 47.37089 16.04040 17708 ft 372 kts
2026-05-06 17:57 47.39603 16.04900 17272 ft 371 kts 18°
2026-05-06 17:57 47.41873 16.06738 16859 ft 373 kts 32°
2026-05-06 17:57 47.44049 16.08857 16452 ft 374 kts 33°
2026-05-06 17:58 47.46191 16.10990 16161 ft 369 kts 33°
2026-05-06 17:58 47.48332 16.13109 16002 ft 371 kts 33°
2026-05-06 17:58 47.50480 16.15210 15837 ft 369 kts 33°
2026-05-06 17:58 47.52625 16.17318 15641 ft 373 kts 33°
2026-05-06 17:59 47.54771 16.19445 15418 ft 368 kts 33°
2026-05-06 17:59 47.56896 16.21549 15197 ft 369 kts 33°
2026-05-06 17:59 47.59032 16.23658 14972 ft 367 kts 33°
2026-05-06 17:59 47.61141 16.25742 14747 ft 363 kts 33°
2026-05-06 18:00 47.63324 16.27913 14536 ft 393 kts 33°
2026-05-06 18:00 47.65601 16.30176 14332 ft 395 kts 33°
2026-05-06 18:00 47.67872 16.32426 14145 ft 395 kts 33°
2026-05-06 18:00 47.70171 16.34706 13727 ft 396 kts 33°
2026-05-06 18:01 47.72442 16.36972 13190 ft 391 kts 33°
2026-05-06 18:01 47.74710 16.39235 12653 ft 395 kts 33°
2026-05-06 18:01 47.76965 16.41482 12136 ft 387 kts 33°
2026-05-06 18:01 47.79203 16.43714 11624 ft 386 kts 33°
2026-05-06 18:02 47.81422 16.45933 11120 ft 379 kts 33°
2026-05-06 18:02 47.83543 16.48061 10635 ft 358 kts 33°
2026-05-06 18:02 47.85563 16.50084 10170 ft 342 kts 33°
2026-05-06 18:02 47.87494 16.52017 9733 ft 328 kts 33°
2026-05-06 18:03 47.89305 16.53835 9296 ft 305 kts 33°
2026-05-06 18:03 47.90983 16.55524 8888 ft 281 kts 33°
2026-05-06 18:03 47.92424 16.57433 8445 ft 279 kts 57°
2026-05-06 18:03 47.93202 16.60032 8177 ft 276 kts 74°
2026-05-06 18:04 47.93806 16.62734 7919 ft 275 kts 75°
2026-05-06 18:04 47.94403 16.65436 7642 ft 273 kts 75°
2026-05-06 18:04 47.94996 16.68127 7372 ft 273 kts 75°
2026-05-06 18:04 47.95587 16.70815 7107 ft 272 kts 75°
2026-05-06 18:05 47.96176 16.73475 6843 ft 270 kts 75°
2026-05-06 18:05 47.96784 16.76172 6573 ft 271 kts 75°
2026-05-06 18:05 47.97370 16.78765 6117 ft 263 kts 75°
2026-05-06 18:05 47.97965 16.81388 5179 ft 273 kts 75°
2026-05-06 18:06 47.98710 16.83954 4682 ft 268 kts 57°
2026-05-06 18:06 48.00146 16.85704 4682 ft 270 kts 26°
2026-05-06 18:06 48.01932 16.86364 4739 ft 263 kts 356°
2026-05-06 18:06 48.03678 16.85835 4763 ft 252 kts 329°
2026-05-06 18:07 48.05048 16.84346 4766 ft 239 kts 304°
2026-05-06 18:07 48.05891 16.82389 4774 ft 216 kts 289°
2026-05-06 18:07 48.06599 16.80378 4785 ft 221 kts 290°
2026-05-06 18:07 48.07331 16.78345 4782 ft 221 kts 291°
2026-05-06 18:08 48.08060 16.76319 4779 ft 222 kts 290°
2026-05-06 18:08 48.09036 16.74481 4731 ft 235 kts 314°
2026-05-06 18:08 48.10558 16.73450 4781 ft 249 kts 342°
2026-05-06 18:08 48.12283 16.73157 4918 ft 248 kts 349°
2026-05-06 18:09 48.14016 16.72917 5018 ft 251 kts 349°
2026-05-06 18:09 48.15755 16.72643 5019 ft 251 kts 349°
2026-05-06 18:09 48.17490 16.72363 4876 ft 252 kts 350°
2026-05-06 18:09 48.19182 16.71892 4491 ft 243 kts 333°
2026-05-06 18:10 48.20483 16.70433 4160 ft 229 kts 304°
2026-05-06 18:10 48.21186 16.68411 3878 ft 213 kts 279°
2026-05-06 18:10 48.21536 16.66391 3659 ft 191 kts 276°
2026-05-06 18:10 48.21853 16.64535 3413 ft 186 kts 275°
2026-05-06 18:11 48.22142 16.62651 3167 ft 184 kts 269°
2026-05-06 18:11 48.22122 16.60891 2934 ft 155 kts 250°
2026-05-06 18:11 48.21819 16.59356 2742 ft 152 kts 239°
2026-05-06 18:11 48.21300 16.58029 2545 ft 137 kts 226°
2026-05-06 18:12 48.20728 16.57110 2365 ft 108 kts 216°
2026-05-06 18:12 48.20150 16.56476 2229 ft 101 kts 208°
2026-05-06 18:12 48.19526 16.56005 2103 ft 100 kts 200°
2026-05-06 18:12 48.18859 16.55693 1976 ft 101 kts 192°
2026-05-06 18:13 48.18168 16.55550 1845 ft 100 kts 184°
2026-05-06 18:13 48.17473 16.55580 1714 ft 100 kts 177°
2026-05-06 18:13 48.16784 16.55781 1578 ft 102 kts 169°
2026-05-06 18:13 48.16102 16.56081 1456 ft 102 kts 167°
2026-05-06 18:14 48.15391 16.56372 1314 ft 113 kts 168°
2026-05-06 18:14 48.14653 16.56683 1191 ft 108 kts 166°
2026-05-06 18:14 48.13936 16.56984 981 ft 111 kts 163°
2026-05-06 18:14 48.13181 16.57299 896 ft 107 kts 160°
2026-05-06 18:15 48.12474 16.57611 761 ft 106 kts 160°
2026-05-06 18:15 48.11774 16.57912 623 ft 101 kts 162°
2026-05-06 18:15 48.11168 16.58170 618 ft 86 kts 165°
2026-05-06 18:15 48.10833 16.58286 606 ft 30 kts 174°
2026-05-06 18:16 48.10652 16.58263 606 ft 20 kts 193°
2026-05-06 18:16 48.10573 16.58232 606 ft 2 kts 202°
2026-05-06 18:16 48.10563 16.58226 606 ft 3 kts 205°
2026-05-06 18:16 48.10560 16.58148 610 ft 10 kts 308°
2026-05-06 18:17 48.10626 16.58110 614 ft 14 kts 345°
2026-05-06 18:17 48.10720 16.58070 606 ft 16 kts 343°
2026-05-06 18:17 48.10849 16.58015 608 ft 19 kts 345°
2026-05-06 18:17 48.10940 16.57957 618 ft 14 kts 319°
2026-05-06 18:18 48.11004 16.57857 606 ft 13 kts 315°
2026-05-06 18:18 48.11058 16.57738 606 ft 17 kts 296°
2026-05-06 18:18 48.11120 16.57545 609 ft 21 kts 296°
2026-05-06 18:18 48.11182 16.57354 609 ft 20 kts 296°
2026-05-06 18:19 48.11242 16.57172 608 ft 19 kts 296°
2026-05-06 18:19 48.11299 16.56998 616 ft 18 kts 296°
2026-05-06 18:19 48.11357 16.56818 606 ft 22 kts 295°
2026-05-06 18:19 48.11422 16.56618 611 ft 21 kts 296°
2026-05-06 18:20 48.11485 16.56426 606 ft 20 kts 296°
2026-05-06 18:20 48.11545 16.56243 606 ft 19 kts 295°
2026-05-06 18:20 48.11601 16.56066 608 ft 18 kts 295°
2026-05-06 18:20 48.11664 16.55880 613 ft 24 kts 297°
2026-05-06 18:21 48.11737 16.55660 611 ft 23 kts 295°
2026-05-06 18:21 48.11811 16.55432 612 ft 27 kts 296°
2026-05-06 18:21 48.11891 16.55182 615 ft 26 kts 295°
2026-05-06 18:21 48.11965 16.54952 606 ft 23 kts 296°
2026-05-06 18:22 48.12035 16.54740 614 ft 22 kts 296°
2026-05-06 18:22 48.12101 16.54537 611 ft 21 kts 296°
2026-05-06 18:22 48.12164 16.54341 614 ft 20 kts 296°
2026-05-06 18:22 48.12229 16.54143 616 ft 23 kts 296°
2026-05-06 18:23 48.12306 16.53903 606 ft 26 kts 295°
2026-05-06 18:23 48.12375 16.53692 610 ft 18 kts 296°
2026-05-06 18:23 48.12435 16.53627 609 ft 9 kts 17°
2026-05-06 18:23 48.12513 16.53629 606 ft 13 kts 13°
2026-05-06 18:24 48.12598 16.53690 616 ft 12 kts 26°
2026-05-06 18:24 48.12637 16.53671 613 ft 5 kts 294°
2026-05-06 18:24 48.12662 16.53653 610 ft 4 kts
2026-05-06 18:24 48.12695 16.53671 606 ft 3 kts 357°
2026-05-06 18:25 48.12704 16.53652 611 ft 4 kts 294°
2026-05-06 18:25 48.12715 16.53619 606 ft 2 kts 296°
2026-05-06 18:25 48.12716 16.53616 613 ft 0 kts 296°